Back to catalog

FENGYUN 1C DEB

AliveSSO
NORAD 33724·DEBRIS·🇨🇳 China

Launched May 10, 1999 from Taiyuan Satellite Launch Center

Loading…

Next Passes (next 24 hours)

TLE

FreshSource: Space-Track

Epoch: Sep 14, 2026, 06:41 UTC

1 33724U 99025DHM 26257.27862781  .00000521  00000-0  26324-3 0  9995
2 33724  98.6010 264.8720 0028574 106.3725 266.8523 14.20107934978720

Track FENGYUN 1C DEB in real time with AllMySat

Download on the App Store